Location: Santa Fe
(35.6870°N, 105.9370°W)
Time: 05:39:26
(UTC-06:00)

Amateur Radio Satellites - All Passes

Search period start: 02 September 2014 05:09
Search period end: 03 September 2014 05:09
Location: Santa Fe, 35.6870°N, 105.9370°W

Satellite Date Start Highest point End Downlink Frequencies (MHz)
Time Altitude Azimuth
JAS-1B 02 Sep 05:18:46 05:21:41 14° 304° (WNW) 05:24:27 435.800 - 435.900 CW/SSB
RS-15 02 Sep 05:26:51 05:31:00 13° 98° (E) 05:35:06 29.354 - 29.394 USB, Beacon 29.352 USB
AO-7 02 Sep 05:29:03 05:37:22 76° 106° (ESE) 05:45:37 29.400 - 29.500 MHz
OPAL 02 Sep 05:34:34 05:38:57 30° 261° (W) 05:43:24 ?
STRAND 1 02 Sep 05:46:05 05:48:28 13° 63° (ENE) 05:50:50 ?
Hamsat 02 Sep 06:02:30 06:05:24 17° 93° (E) 06:08:15 145.90 MHz
JAS-2 02 Sep 06:16:45 06:21:21 28° 98° (E) 06:26:17 435.800 - 435.900 CW/SSB, 435.910 FM
UOSAT-12 02 Sep 06:26:22 06:29:36 19° 312° (NW) 06:32:54 437.025 FM, 437.400 FM
Uosat F 02 Sep 06:40:22 06:43:45 19° 294° (WNW) 06:47:08 435.120 FM
Saudisat 1A 02 Sep 06:48:55 06:52:53 31° 54° (NE) 06:56:49 436.775 MHz
KITSAT 1 02 Sep 07:13:58 07:20:19 25° 45° (NE) 07:26:37 435.175 FM
STRAND 1 02 Sep 07:22:00 07:27:03 66° 258° (WSW) 07:32:07 ?
AO-7 02 Sep 07:23:21 07:29:16 22° 303° (WNW) 07:35:11 29.400 - 29.500 MHz
RS-15 02 Sep 07:30:19 07:41:24 74° 115° (ESE) 07:52:15 29.354 - 29.394 USB, Beacon 29.352 USB
Hamsat 02 Sep 07:37:31 07:41:25 33° 288° (WNW) 07:45:16 145.90 MHz
JAS-2 02 Sep 08:01:44 08:06:25 32° 290° (WNW) 08:11:27 435.800 - 435.900 CW/SSB, 435.910 FM
SO-67 02 Sep 08:13:15 08:16:43 86° 283° (WNW) 08:20:09 435.3500 MHz FM
Saudisat 1A 02 Sep 08:28:50 08:32:16 23° 249° (WSW) 08:35:42 436.775 MHz
KITSAT 1 02 Sep 09:08:26 09:16:30 76° 245° (WSW) 09:24:31 435.175 FM
ISS 02 Sep 09:18:45 09:22:01 59° 135° (SE) 09:25:18 145.800 FM
UKube-1 02 Sep 09:37:10 09:40:05 18° 95° (E) 09:43:00 145.840 MHz, 145.915 MHz
Oscar 11 02 Sep 09:41:16 09:43:07 12° 92° (E) 09:44:58 145.825 FM, Beacon 2401.500 USB
RS-15 02 Sep 09:45:17 09:54:42 32° 318° (NW) 10:04:08 29.354 - 29.394 USB, Beacon 29.352 USB
HO-68 02 Sep 09:53:36 10:00:40 59° 102° (ESE) 10:07:42 435.675 MHz FM
FUNcube-1 02 Sep 10:14:39 10:16:30 12° 92° (E) 10:18:21 145.950 - 145.970 MHz USB
ISS 02 Sep 10:56:48 10:59:00 16° 332° (NNW) 11:01:13 145.800 FM
PANSAT 02 Sep 11:03:40 11:06:40 21° 169° (SSE) 11:09:40 not established
KITSAT 1 02 Sep 11:08:18 11:10:33 11° 261° (W) 11:12:47 435.175 FM
UKube-1 02 Sep 11:12:26 11:16:21 34° 289° (WNW) 11:20:15 145.840 MHz, 145.915 MHz
Oscar 11 02 Sep 11:15:19 11:19:32 47° 286° (WNW) 11:23:42 145.825 FM, Beacon 2401.500 USB
SO-50 02 Sep 11:33:56 11:37:52 24° 51° (NE) 11:41:48 436.795 FM
HO-68 02 Sep 11:42:21 11:47:49 25° 298° (WNW) 11:53:18 435.675 MHz FM
FUNcube-1 02 Sep 11:48:41 11:53:08 54° 285° (WNW) 11:57:38 145.950 - 145.970 MHz USB
RS-15 02 Sep 12:08:08 12:12:18 12° 352° (N) 12:16:29 29.354 - 29.394 USB, Beacon 29.352 USB
JAS-1B 02 Sep 12:21:11 12:23:49 12° 54° (NE) 12:26:21 435.800 - 435.900 CW/SSB
MaSat-1 02 Sep 12:28:25 12:33:05 52° 108° (ESE) 12:38:04 437.345 MHz
Oscar 16 02 Sep 12:33:57 12:36:43 15° 64° (ENE) 12:39:29 437.025 USB, Beacon 2401.1428
PANSAT 02 Sep 12:43:04 12:46:24 28° 181° (S) 12:49:44 not established
AO-27 02 Sep 13:07:55 13:10:13 13° 63° (ENE) 13:12:30 436.795 MHz FM
SO-50 02 Sep 13:14:04 13:18:30 37° 246° (WSW) 13:22:57 436.795 FM
UOSAT-12 02 Sep 13:17:42 13:21:19 21° 49° (NE) 13:24:54 437.025 FM, 437.400 FM
Oscar 19 02 Sep 13:35:02 13:40:04 57° 73° (ENE) 13:45:09 437.125 CW, 437.150 USB
AO-Echo 02 Sep 13:39:57 13:44:12 29° 70° (ENE) 13:48:20 ?
Gurwin Techsat 1B 02 Sep 13:51:50 13:54:53 16° 64° (ENE) 13:57:56 435.225 FM
JAS-1B 02 Sep 14:03:18 14:12:48 59° 71° (ENE) 14:21:19 435.800 - 435.900 CW/SSB
MaSat-1 02 Sep 14:06:54 14:10:25 19° 306° (NW) 14:14:02 437.345 MHz
Oscar 16 02 Sep 14:10:25 14:15:30 61° 259° (W) 14:20:38 437.025 USB, Beacon 2401.1428
ITAMSAT 1 02 Sep 14:14:10 14:19:14 59° 73° (ENE) 14:24:18 435.822 SSB
Uribyol 2 02 Sep 14:23:15 14:28:24 78° 75° (ENE) 14:33:34 436.500 FM
PANSAT 02 Sep 14:23:20 14:26:06 19° 194° (SSW) 14:28:51 not established
RS-15 02 Sep 14:23:41 14:31:15 20° 30° (NNE) 14:38:57 29.354 - 29.394 USB, Beacon 29.352 USB
AO-7 02 Sep 14:36:48 14:41:15 16° 53° (NE) 14:45:41 29.400 - 29.500 MHz
TMSAT-1 02 Sep 14:39:30 14:44:09 32° 69° (ENE) 14:48:49 436.925 FM
AO-27 02 Sep 14:43:56 14:49:05 69° 258° (WSW) 14:54:16 436.795 MHz FM
UOSAT-12 02 Sep 14:57:12 15:01:38 41° 246° (WSW) 15:05:58 437.025 FM, 437.400 FM
PCSat 02 Sep 15:16:13 15:19:34 17° 104° (ESE) 15:22:57 145.825 MHz
Oscar 19 02 Sep 15:16:59 15:19:44 14° 268° (W) 15:22:29 437.125 CW, 437.150 USB
AO-Echo 02 Sep 15:18:38 15:22:52 27° 263° (W) 15:27:01 ?
Gurwin Techsat 1B 02 Sep 15:29:05 15:34:18 59° 259° (W) 15:39:33 435.225 FM
ISS 02 Sep 15:50:18 15:53:01 23° 32° (NNE) 15:55:43 145.800 FM
JAS-1B 02 Sep 15:54:55 16:03:21 33° 264° (W) 16:11:11 435.800 - 435.900 CW/SSB
ITAMSAT 1 02 Sep 15:56:28 15:59:03 14° 268° (W) 16:01:39 435.822 SSB
Uosat F 02 Sep 16:10:59 16:15:44 46° 72° (ENE) 16:20:30 435.120 FM
TMSAT-1 02 Sep 16:19:38 16:24:02 27° 264° (W) 16:28:28 436.925 FM
AO-7 02 Sep 16:24:23 16:32:43 79° 71° (ENE) 16:41:03 29.400 - 29.500 MHz
Sapphire 02 Sep 16:27:55 16:33:17 76° 114° (ESE) 16:38:42 437.095 MHz 1200 baud AX-25 AFSK
RS-15 02 Sep 16:35:11 16:46:15 66° 57° (ENE) 16:57:45 29.354 - 29.394 USB, Beacon 29.352 USB
PCSat 02 Sep 16:57:11 17:02:28 55° 300° (WNW) 17:07:48 145.825 MHz
ISS 02 Sep 17:26:44 17:29:47 34° 228° (SW) 17:32:50 145.800 FM
OPAL 02 Sep 17:46:29 17:51:44 88° 286° (WNW) 17:56:55 ?
Uosat F 02 Sep 17:51:29 17:54:42 17° 266° (W) 17:57:57 435.120 FM
JAS-2 02 Sep 18:10:05 18:16:13 73° 75° (ENE) 18:21:43 435.800 - 435.900 CW/SSB, 435.910 FM
Sapphire 02 Sep 18:14:13 18:17:18 15° 312° (NW) 18:20:24 437.095 MHz 1200 baud AX-25 AFSK
AO-7 02 Sep 18:20:43 18:26:10 19° 267° (W) 18:31:39 29.400 - 29.500 MHz
Hamsat 02 Sep 18:27:12 18:31:29 70° 259° (W) 18:35:51 145.90 MHz
SO-67 02 Sep 18:44:16 18:46:44 19° 71° (ENE) 18:49:12 435.3500 MHz FM
RS-15 02 Sep 18:48:33 18:57:49 32° 255° (WSW) 19:07:27 29.354 - 29.394 USB, Beacon 29.352 USB
OPAL 02 Sep 19:29:17 19:29:47 10° 302° (WNW) 19:30:17 ?
STRAND 1 02 Sep 19:35:34 19:40:34 53° 101° (E) 19:45:33 ?
JAS-2 02 Sep 19:59:10 20:01:36 13° 267° (W) 20:03:57 435.800 - 435.900 CW/SSB, 435.910 FM
SO-67 02 Sep 20:17:05 20:19:38 19° 265° (W) 20:22:12 435.3500 MHz FM
HO-68 02 Sep 20:19:31 20:25:41 33° 65° (ENE) 20:31:52 435.675 MHz FM
UKube-1 02 Sep 20:31:44 20:33:09 11° 64° (ENE) 20:34:34 145.840 MHz, 145.915 MHz
Saudisat 1A 02 Sep 20:54:07 20:56:45 16° 109° (ESE) 20:59:24 436.775 MHz
STRAND 1 02 Sep 21:16:12 21:19:17 16° 295° (WNW) 21:22:22 ?
KITSAT 1 02 Sep 21:40:39 21:46:16 21° 103° (ESE) 21:51:52 435.175 FM
UKube-1 02 Sep 22:04:34 22:08:50 57° 259° (W) 22:13:07 145.840 MHz, 145.915 MHz
HO-68 02 Sep 22:06:29 22:13:09 43° 260° (W) 22:19:53 435.675 MHz FM
Oscar 11 02 Sep 22:07:01 22:11:21 90° 256° (WSW) 22:15:44 145.825 FM, Beacon 2401.500 USB
MaSat-1 02 Sep 22:25:55 22:30:14 57° 64° (ENE) 22:33:55 437.345 MHz
Saudisat 1A 02 Sep 22:31:45 22:35:56 44° 304° (NW) 22:40:10 436.775 MHz
FUNcube-1 02 Sep 22:42:09 22:46:19 84° 77° (ENE) 22:50:37 145.950 - 145.970 MHz USB
KITSAT 1 02 Sep 23:32:45 23:40:49 73° 299° (WNW) 23:48:56 435.175 FM
Sapphire 03 Sep 01:19:09 01:24:02 33° 56° (NE) 01:28:52 437.095 MHz 1200 baud AX-25 AFSK
KITSAT 1 03 Sep 01:32:45 01:37:41 17° 321° (NW) 01:42:39 435.175 FM
PCSat 03 Sep 01:47:55 01:53:19 63° 61° (ENE) 01:58:40 145.825 MHz
SO-50 03 Sep 01:48:25 01:50:22 13° 107° (ESE) 01:52:20 436.795 FM
Oscar 19 03 Sep 01:50:13 01:54:30 26° 96° (E) 01:58:45 437.125 CW, 437.150 USB
JAS-1B 03 Sep 01:57:35 01:59:30 11° 87° (E) 02:01:22 435.800 - 435.900 CW/SSB
Oscar 16 03 Sep 02:25:04 02:30:14 61° 101° (E) 02:35:20 437.025 USB, Beacon 2401.1428
ITAMSAT 1 03 Sep 02:30:32 02:34:53 27° 96° (E) 02:39:12 435.822 SSB
Uribyol 2 03 Sep 02:39:16 02:44:00 35° 98° (E) 02:48:44 436.500 FM
TMSAT-1 03 Sep 02:59:16 03:02:28 16° 93° (E) 03:05:39 436.925 FM
AO-27 03 Sep 02:59:59 03:05:04 54° 101° (E) 03:10:08 436.795 MHz FM
Sapphire 03 Sep 03:02:39 03:07:20 30° 252° (WSW) 03:11:59 437.095 MHz 1200 baud AX-25 AFSK
OPAL 03 Sep 03:23:03 03:25:24 13° 60° (ENE) 03:27:46 ?
SO-50 03 Sep 03:26:01 03:30:23 54° 303° (WNW) 03:34:51 436.795 FM
AO-Echo 03 Sep 03:27:50 03:32:30 67° 285° (WNW) 03:37:13 ?
Oscar 19 03 Sep 03:29:13 03:33:49 33° 290° (WNW) 03:38:23 437.125 CW, 437.150 USB
UOSAT-12 03 Sep 03:29:25 03:30:11 10° 106° (ESE) 03:30:57 437.025 FM, 437.400 FM
PCSat 03 Sep 03:33:14 03:36:07 15° 257° (WSW) 03:38:59 145.825 MHz
JAS-1B 03 Sep 03:44:42 03:51:06 73° 286° (WNW) 03:56:48 435.800 - 435.900 CW/SSB
Gurwin Techsat 1B 03 Sep 03:48:13 03:53:31 71° 102° (ESE) 03:58:48 435.225 FM
Oscar 16 03 Sep 04:06:11 04:09:01 15° 296° (WNW) 04:11:50 437.025 USB, Beacon 2401.1428
ITAMSAT 1 03 Sep 04:09:46 04:14:19 32° 291° (WNW) 04:18:52 435.822 SSB
Uribyol 2 03 Sep 04:19:07 04:23:16 25° 293° (WNW) 04:27:25 436.500 FM
Uosat F 03 Sep 04:22:41 04:26:01 18° 94° (E) 04:29:20 435.120 FM
AO-7 03 Sep 04:30:04 04:37:11 31° 97° (E) 04:44:14 29.400 - 29.500 MHz
TMSAT-1 03 Sep 04:37:31 04:42:40 53° 287° (WNW) 04:47:47 436.925 FM
AO-27 03 Sep 04:40:56 04:44:06 17° 296° (WNW) 04:47:16 436.795 MHz FM
OPAL 03 Sep 04:58:36 05:03:38 69° 256° (WSW) 05:08:46 ?
